User: anonymous   Login
Location: Cranbrook Institute of Science
(42.5830°N, 83.2450°W)
Time: 03:40:37
(UTC-04:00)
Language:

ATLAS 5 CENTAUR R/B - Orbit

View from above orbital plane
View from above orbital plane
View from above satellite
View from above satellite

Ground track
Ground track

The orbit data is extracted from the following two-line orbital elements,

1 31702U 07027B   17295.76416473 0.00000250  00000-0  78858-4 0    01
2 31702  63.3622 211.0639 0291000   5.1285 354.8715 14.18593408    08
Epoch (UTC): 22 October 2017 18:20:23
Eccentricity: 0.0291000
inclination: 63.3622°
perigee height: 620 km
apogee height: 1040 km
right ascension of ascending node: 211.0639°
argument of perigee: 5.1285°
revolutions per day: 14.18593408
mean anomaly at epoch: 354.8715°
orbit number at epoch: 0

The dashed part of the orbit path shows where the satellite is in the earth's shadow,  

DLR